Time,TemperatureF,DewpointF,PressureIn,WindDirection,WindDirectionDegrees,WindSpeedMPH,WindSpeedGustMPH,Humidity,HourlyPrecipIn,Conditions,Clouds,dailyrainin,SoftwareType,DateUTC
2013-03-10 00:05:00,42.1,30.0,30.33,ESE,113,1.1,1.1,62,0.00,,,0.00,WUHU216HW,2013-03-10 08:05:00,
2013-03-10 00:12:00,41.9,29.4,30.33,NNW,338,0.0,1.1,61,0.00,,,0.00,WUHU216HW,2013-03-10 08:12:00,
2013-03-10 00:18:00,41.6,29.5,30.33,SW,225,0.9,1.8,62,0.00,,,0.00,WUHU216HW,2013-03-10 08:18:00,
2013-03-10 00:25:00,40.7,29.1,30.33,SSE,158,2.2,2.9,63,0.00,,,0.00,WUHU216HW,2013-03-10 08:25:00,
2013-03-10 00:31:00,40.1,28.5,30.33,ESE,113,3.1,4.0,63,0.00,,,0.00,WUHU216HW,2013-03-10 08:31:00,
2013-03-10 00:37:00,39.6,28.0,30.33,East,90,1.1,4.0,63,0.00,,,0.00,WUHU216HW,2013-03-10 08:37:00,
2013-03-10 00:44:00,39.6,28.0,30.33,SE,135,0.7,2.7,63,0.00,,,0.00,WUHU216HW,2013-03-10 08:44:00,
2013-03-10 00:50:00,39.4,28.5,30.33,ESE,113,2.2,2.7,65,0.00,,,0.00,WUHU216HW,2013-03-10 08:50:00,
2013-03-10 00:57:00,39.4,29.3,30.34,West,270,1.6,3.6,67,0.00,,,0.00,WUHU216HW,2013-03-10 08:57:00,
2013-03-10 01:04:00,39.8,29.3,30.34,ENE,68,4.7,5.1,66,0.00,,,0.00,WUHU216HW,2013-03-10 09:04:00,
2013-03-10 01:10:00,40.0,29.1,30.34,East,90,1.8,5.1,65,0.00,,,0.00,WUHU216HW,2013-03-10 09:10:00,
2013-03-10 01:16:00,40.3,29.8,30.34,ENE,68,4.3,4.9,66,0.00,,,0.00,WUHU216HW,2013-03-10 09:16:00,
2013-03-10 01:23:00,40.3,29.8,30.33,NNE,23,4.5,5.1,66,0.00,,,0.00,WUHU216HW,2013-03-10 09:23:00,
2013-03-10 01:29:00,40.7,30.2,30.34,West,270,0.7,4.7,66,0.00,,,0.00,WUHU216HW,2013-03-10 09:29:00,
2013-03-10 01:36:00,40.1,30.0,30.35,SSE,158,2.5,2.5,67,0.00,,,0.00,WUHU216HW,2013-03-10 09:36:00,
2013-03-10 01:42:00,39.8,28.5,30.35,SSE,158,1.6,3.4,64,0.00,,,0.00,WUHU216HW,2013-03-10 09:42:00,
2013-03-10 01:49:00,39.4,27.8,30.34,SE,135,1.6,2.0,63,0.00,,,0.00,WUHU216HW,2013-03-10 09:49:00,
2013-03-10 01:59:00,39.2,28.0,30.34,East,90,2.9,2.9,64,0.00,,,0.00,WUHU216HW,2013-03-10 09:59:00,
2013-03-10 03:04:00,39.2,28.4,30.33,ESE,113,3.4,6.3,65,0.00,,,0.00,WUHU216HW,2013-03-10 10:04:00,
2013-03-10 03:09:00,39.6,29.1,30.33,SSE,158,2.0,6.3,66,0.00,,,0.00,WUHU216HW,2013-03-10 10:09:00,
2013-03-10 03:14:00,39.8,28.9,30.34,NE,45,1.1,3.1,65,0.00,,,0.00,WUHU216HW,2013-03-10 10:14:00,
2013-03-10 03:19:00,39.6,28.7,30.34,NE,45,0.2,1.3,65,0.00,,,0.00,WUHU216HW,2013-03-10 10:19:00,
2013-03-10 03:24:00,39.4,28.5,30.33,NW,315,0.0,1.8,65,0.00,,,0.00,WUHU216HW,2013-03-10 10:24:00,
2013-03-10 03:29:00,38.9,28.5,30.33,NNW,338,0.9,1.8,66,0.00,,,0.00,WUHU216HW,2013-03-10 10:29:00,
2013-03-10 03:34:00,38.7,28.6,30.33,SSE,158,1.8,1.8,67,0.00,,,0.00,WUHU216HW,2013-03-10 10:34:00,
2013-03-10 03:39:00,39.1,29.0,30.33,ENE,68,0.9,2.2,67,0.00,,,0.00,WUHU216HW,2013-03-10 10:39:00,
2013-03-10 03:44:00,38.9,28.8,30.33,North,0,0.0,2.2,67,0.00,,,0.00,WUHU216HW,2013-03-10 10:44:00,
2013-03-10 03:50:00,38.7,28.6,30.32,North,0,0.0,1.1,67,0.00,,,0.00,WUHU216HW,2013-03-10 10:50:00,
2013-03-10 03:55:00,38.5,28.4,30.32,NNW,338,0.0,0.0,67,0.00,,,0.00,WUHU216HW,2013-03-10 10:55:00,
2013-03-10 04:00:00,38.2,28.2,30.32,ENE,68,0.4,0.9,67,0.00,,,0.00,WUHU216HW,2013-03-10 11:00:00,
2013-03-10 04:05:00,38.2,28.5,30.32,NNW,338,0.0,0.9,68,0.00,,,0.00,WUHU216HW,2013-03-10 11:05:00,
2013-03-10 04:10:00,38.0,28.4,30.33,NE,45,1.1,1.1,68,0.00,,,0.00,WUHU216HW,2013-03-10 11:10:00,
2013-03-10 04:15:00,38.0,28.7,30.33,NNE,23,1.1,2.0,69,0.00,,,0.00,WUHU216HW,2013-03-10 11:15:00,
2013-03-10 04:20:00,37.8,28.5,30.33,ENE,68,0.7,2.0,69,0.00,,,0.00,WUHU216HW,2013-03-10 11:20:00,
2013-03-10 04:25:00,37.8,28.2,30.32,SSW,203,0.2,1.1,68,0.00,,,0.00,WUHU216HW,2013-03-10 11:25:00,
2013-03-10 04:30:00,37.8,28.2,30.33,NNE,23,0.0,1.1,68,0.00,,,0.00,WUHU216HW,2013-03-10 11:30:00,
2013-03-10 04:35:00,37.8,28.2,30.33,East,90,1.1,1.1,68,0.00,,,0.00,WUHU216HW,2013-03-10 11:35:00,
2013-03-10 04:40:00,37.8,28.2,30.33,SE,135,0.4,1.1,68,0.00,,,0.00,WUHU216HW,2013-03-10 11:40:00,
2013-03-10 04:45:00,37.4,27.9,30.33,ESE,113,3.8,3.8,68,0.00,,,0.00,WUHU216HW,2013-03-10 11:45:00,
2013-03-10 04:50:00,36.9,27.7,30.33,North,0,1.3,3.8,69,0.00,,,0.00,WUHU216HW,2013-03-10 11:50:00,
2013-03-10 04:56:00,37.1,29.3,30.34,SSW,203,1.1,3.4,73,0.00,,,0.00,WUHU216HW,2013-03-10 11:56:00,
2013-03-10 05:01:00,37.1,28.6,30.33,SE,135,0.2,1.6,71,0.00,,,0.00,WUHU216HW,2013-03-10 12:01:00,
2013-03-10 05:06:00,36.9,28.5,30.33,West,270,0.0,0.9,71,0.00,,,0.00,WUHU216HW,2013-03-10 12:06:00,
2013-03-10 05:11:00,36.7,28.3,30.33,ENE,68,0.7,0.7,71,0.00,,,0.00,WUHU216HW,2013-03-10 12:11:00,
2013-03-10 05:16:00,36.5,28.1,30.33,SSE,158,0.9,1.6,71,0.00,,,0.00,WUHU216HW,2013-03-10 12:16:00,
2013-03-10 05:21:00,36.9,28.7,30.33,WSW,248,0.7,2.0,72,0.00,,,0.00,WUHU216HW,2013-03-10 12:21:00,
2013-03-10 05:26:00,36.4,28.5,30.33,North,0,1.1,2.0,73,0.00,,,0.00,WUHU216HW,2013-03-10 12:26:00,
2013-03-10 05:31:00,35.8,28.0,30.33,NNE,23,0.7,2.0,73,0.00,,,0.00,WUHU216HW,2013-03-10 12:31:00,
2013-03-10 05:37:00,35.6,27.8,30.33,SSE,158,0.4,1.8,73,0.00,,,0.00,WUHU216HW,2013-03-10 12:37:00,
2013-03-10 05:42:00,36.0,28.2,30.33,SSE,158,0.4,1.3,73,0.00,,,0.00,WUHU216HW,2013-03-10 12:42:00,
2013-03-10 05:47:00,36.4,28.5,30.33,ESE,113,4.0,4.0,73,0.00,,,0.00,WUHU216HW,2013-03-10 12:47:00,
2013-03-10 05:52:00,37.1,29.5,30.33,ENE,68,2.7,4.0,74,0.00,,,0.00,WUHU216HW,2013-03-10 12:52:00,
2013-03-10 05:57:00,37.8,30.0,30.33,WSW,248,3.6,4.7,73,0.00,,,0.00,WUHU216HW,2013-03-10 12:57:00,
2013-03-10 06:02:00,38.5,30.2,30.33,ESE,113,2.9,4.7,72,0.00,,,0.00,WUHU216HW,2013-03-10 13:02:00,
2013-03-10 06:07:00,38.5,30.0,30.33,NE,45,0.4,3.8,71,0.00,,,0.00,WUHU216HW,2013-03-10 13:07:00,
2013-03-10 06:12:00,38.5,30.0,30.33,ESE,113,2.7,2.7,71,0.00,,,0.00,WUHU216HW,2013-03-10 13:12:00,
2013-03-10 06:17:00,38.7,30.1,30.33,ESE,113,3.1,3.1,71,0.00,,,0.00,WUHU216HW,2013-03-10 13:17:00,
2013-03-10 06:19:00,38.7,29.8,30.33,South,180,3.1,3.1,70,0.00,,,0.00,WUHU216HW,2013-03-10 13:19:00,
2013-03-10 06:26:00,38.9,29.9,30.33,SSE,158,3.6,3.6,70,0.00,,,0.00,WUHU216HW,2013-03-10 13:26:00,
2013-03-10 06:37:00,38.9,29.2,30.34,SSW,203,0.4,3.6,68,0.00,,,0.00,WUHU216HW,2013-03-10 13:37:00,
2013-03-10 06:42:00,38.3,28.7,30.34,WSW,248,0.7,2.0,68,0.00,,,0.00,WUHU216HW,2013-03-10 13:42:00,
2013-03-10 06:47:00,37.8,28.5,30.35,North,0,0.4,1.6,69,0.00,,,0.00,WUHU216HW,2013-03-10 13:47:00,
2013-03-10 06:52:00,37.3,28.8,30.35,NNW,338,1.3,1.3,71,0.00,,,0.00,WUHU216HW,2013-03-10 13:52:00,
2013-03-10 06:57:00,36.7,28.3,30.34,SSE,158,1.1,2.0,71,0.00,,,0.00,WUHU216HW,2013-03-10 13:57:00,
2013-03-10 07:02:00,36.4,27.5,30.34,SE,135,2.2,3.6,70,0.00,,,0.00,WUHU216HW,2013-03-10 14:02:00,
2013-03-10 07:07:00,36.4,27.5,30.34,SSW,203,2.2,3.6,70,0.00,,,0.00,WUHU216HW,2013-03-10 14:07:00,
2013-03-10 07:12:00,36.0,27.6,30.34,South,180,0.4,2.5,71,0.00,,,0.00,WUHU216HW,2013-03-10 14:12:00,
2013-03-10 07:17:00,35.8,27.4,30.35,SSE,158,0.9,2.5,71,0.00,,,0.00,WUHU216HW,2013-03-10 14:17:00,
2013-03-10 07:22:00,35.8,27.4,30.35,SSW,203,0.4,2.2,71,0.00,,,0.00,WUHU216HW,2013-03-10 14:22:00,
2013-03-10 07:27:00,35.8,27.4,30.34,SE,135,1.3,1.8,71,0.00,,,0.00,WUHU216HW,2013-03-10 14:27:00,
2013-03-10 07:32:00,35.6,27.2,30.34,North,0,0.0,1.3,71,0.00,,,0.00,WUHU216HW,2013-03-10 14:32:00,
2013-03-10 07:38:00,35.8,27.6,30.33,ENE,68,1.1,2.0,72,0.00,,,0.00,WUHU216HW,2013-03-10 14:38:00,
2013-03-10 07:43:00,35.8,27.6,30.33,SSE,158,1.6,3.4,72,0.00,,,0.00,WUHU216HW,2013-03-10 14:43:00,
2013-03-10 07:48:00,36.2,28.4,30.33,SSE,158,2.2,3.4,73,0.00,,,0.00,WUHU216HW,2013-03-10 14:48:00,
2013-03-10 07:53:00,36.4,28.2,30.33,SE,135,3.8,5.6,72,0.00,,,0.00,WUHU216HW,2013-03-10 14:53:00,
2013-03-10 07:58:00,36.7,29.2,30.32,West,270,1.8,5.6,74,0.00,,,0.00,WUHU216HW,2013-03-10 14:58:00,
2013-03-10 08:03:00,36.4,28.5,30.32,West,270,0.7,2.5,73,0.00,,,0.00,WUHU216HW,2013-03-10 15:03:00,
2013-03-10 08:08:00,36.4,28.5,30.32,SSE,158,0.9,1.3,73,0.00,,,0.00,WUHU216HW,2013-03-10 15:08:00,
2013-03-10 08:13:00,36.4,28.5,30.33,SSE,158,1.3,2.2,73,0.00,,,0.00,WUHU216HW,2013-03-10 15:13:00,
2013-03-10 08:18:00,36.5,29.0,30.33,NW,315,0.4,2.2,74,0.00,,,0.00,WUHU216HW,2013-03-10 15:18:00,
2013-03-10 08:23:00,36.5,30.0,30.33,NNE,23,1.3,2.5,77,0.00,,,0.00,WUHU216HW,2013-03-10 15:23:00,
2013-03-10 08:28:00,36.7,29.5,30.33,SE,135,0.0,2.5,75,0.00,,,0.00,WUHU216HW,2013-03-10 15:28:00,
2013-03-10 08:33:00,37.1,29.9,30.33,North,0,0.9,1.1,75,0.00,,,0.00,WUHU216HW,2013-03-10 15:33:00,
2013-03-10 08:38:00,37.3,30.1,30.33,NE,45,0.0,1.1,75,0.00,,,0.00,WUHU216HW,2013-03-10 15:38:00,
2013-03-10 08:44:00,37.4,30.2,30.33,NW,315,0.0,0.7,75,0.00,,,0.00,WUHU216HW,2013-03-10 15:44:00,
2013-03-10 08:49:00,37.6,30.1,30.33,NNW,338,0.0,0.7,74,0.00,,,0.00,WUHU216HW,2013-03-10 15:49:00,
2013-03-10 08:54:00,37.6,30.4,30.33,West,270,0.0,0.7,75,0.00,,,0.00,WUHU216HW,2013-03-10 15:54:00,
2013-03-10 08:59:00,37.6,30.1,30.33,West,270,0.0,0.7,74,0.00,,,0.00,WUHU216HW,2013-03-10 15:59:00,
2013-03-10 09:04:00,38.0,30.4,30.33,West,270,0.0,0.0,74,0.00,,,0.00,WUHU216HW,2013-03-10 16:04:00,
2013-03-10 09:09:00,38.2,31.0,30.33,SW,225,0.0,1.1,75,0.00,,,0.00,WUHU216HW,2013-03-10 16:09:00,
2013-03-10 09:14:00,38.2,31.0,30.33,SW,225,0.2,1.1,75,0.00,,,0.00,WUHU216HW,2013-03-10 16:14:00,
2013-03-10 09:19:00,38.5,31.2,30.33,SW,225,0.0,0.2,75,0.00,,,0.00,WUHU216HW,2013-03-10 16:19:00,
2013-03-10 09:24:00,38.9,31.6,30.33,South,180,0.0,0.0,75,0.00,,,0.00,WUHU216HW,2013-03-10 16:24:00,
2013-03-10 09:29:00,39.2,32.3,30.33,West,270,0.0,0.0,76,0.00,,,0.00,WUHU216HW,2013-03-10 16:29:00,
2013-03-10 09:34:00,40.0,32.9,30.33,WSW,248,0.0,0.2,76,0.00,,,0.00,WUHU216HW,2013-03-10 16:34:00,
2013-03-10 09:39:00,40.3,32.9,30.33,NW,315,0.4,0.7,75,0.00,,,0.00,WUHU216HW,2013-03-10 16:39:00,
2013-03-10 09:44:00,40.5,33.1,30.33,NNW,338,0.0,1.3,75,0.00,,,0.00,WUHU216HW,2013-03-10 16:44:00,
2013-03-10 09:50:00,40.7,33.0,30.33,SSE,158,2.0,2.0,74,0.00,,,0.00,WUHU216HW,2013-03-10 16:50:00,
2013-03-10 09:55:00,41.2,33.2,30.32,SSE,158,2.7,2.7,73,0.00,,,0.00,WUHU216HW,2013-03-10 16:55:00,
2013-03-10 10:00:00,42.1,33.8,30.32,South,180,3.1,3.1,72,0.00,,,0.00,WUHU216HW,2013-03-10 17:00:00,
2013-03-10 10:05:00,43.0,33.6,30.32,South,180,3.1,3.1,69,0.00,,,0.00,WUHU216HW,2013-03-10 17:05:00,
2013-03-10 10:10:00,43.9,34.0,30.32,SSW,203,2.2,3.1,68,0.00,,,0.00,WUHU216HW,2013-03-10 17:10:00,
2013-03-10 10:15:00,44.5,34.6,30.32,SSW,203,1.8,2.7,68,0.00,,,0.00,WUHU216HW,2013-03-10 17:15:00,
2013-03-10 10:20:00,45.0,33.9,30.32,SSW,203,3.4,3.4,65,0.00,,,0.00,WUHU216HW,2013-03-10 17:20:00,
2013-03-10 10:25:00,45.5,33.7,30.32,SE,135,3.4,4.9,63,0.00,,,0.00,WUHU216HW,2013-03-10 17:25:00,
2013-03-10 10:30:00,45.7,33.0,30.32,SSW,203,4.0,5.8,61,0.00,,,0.00,WUHU216HW,2013-03-10 17:30:00,
2013-03-10 10:35:00,46.3,33.1,30.32,SSW,203,3.8,5.4,60,0.00,,,0.00,WUHU216HW,2013-03-10 17:35:00,
2013-03-10 10:40:00,46.4,32.9,30.31,SW,225,3.6,3.8,59,0.00,,,0.00,WUHU216HW,2013-03-10 17:40:00,
2013-03-10 10:45:00,46.4,32.9,30.31,SSW,203,2.9,4.0,59,0.00,,,0.00,WUHU216HW,2013-03-10 17:45:00,
2013-03-10 10:50:00,46.6,33.5,30.31,SSW,203,3.6,4.0,60,0.00,,,0.00,WUHU216HW,2013-03-10 17:50:00,
2013-03-10 10:55:00,47.0,34.2,30.30,SSE,158,3.6,3.8,61,0.00,,,0.00,WUHU216HW,2013-03-10 17:55:00,
2013-03-10 11:00:00,47.5,34.4,30.30,South,180,2.9,4.5,60,0.00,,,0.00,WUHU216HW,2013-03-10 18:00:00,
2013-03-10 11:06:00,48.2,34.7,30.30,South,180,3.1,4.5,59,0.00,,,0.00,WUHU216HW,2013-03-10 18:06:00,
2013-03-10 11:11:00,48.4,34.3,30.30,SSW,203,2.5,3.6,58,0.00,,,0.00,WUHU216HW,2013-03-10 18:11:00,
2013-03-10 11:16:00,48.8,34.7,30.30,SSE,158,5.4,5.4,58,0.00,,,0.00,WUHU216HW,2013-03-10 18:16:00,
2013-03-10 11:21:00,49.1,34.6,30.29,SSW,203,3.4,5.4,57,0.00,,,0.00,WUHU216HW,2013-03-10 18:21:00,
2013-03-10 11:26:00,49.3,34.2,30.29,South,180,3.4,4.5,56,0.00,,,0.00,WUHU216HW,2013-03-10 18:26:00,
2013-03-10 11:31:00,49.5,33.9,30.29,South,180,3.8,4.0,55,0.00,,,0.00,WUHU216HW,2013-03-10 18:31:00,
2013-03-10 11:36:00,49.7,34.6,30.28,SSW,203,4.0,4.0,56,0.00,,,0.00,WUHU216HW,2013-03-10 18:36:00,
2013-03-10 11:41:00,49.9,34.3,30.29,SW,225,3.4,4.0,55,0.00,,,0.00,WUHU216HW,2013-03-10 18:41:00,
2013-03-10 11:46:00,50.0,34.9,30.29,SSW,203,1.8,3.8,56,0.00,,,0.00,WUHU216HW,2013-03-10 18:46:00,
2013-03-10 11:51:00,50.2,35.6,30.28,South,180,1.8,4.0,57,0.00,,,0.00,WUHU216HW,2013-03-10 18:51:00,
2013-03-10 11:56:00,50.8,35.1,30.28,South,180,2.5,4.0,55,0.00,,,0.00,WUHU216HW,2013-03-10 18:56:00,
2013-03-10 12:01:00,50.9,35.3,30.28,SSE,158,3.1,4.0,55,0.00,,,0.00,WUHU216HW,2013-03-10 19:01:00,
2013-03-10 12:07:00,51.5,35.7,30.27,SSW,203,3.1,3.8,55,0.00,,,0.00,WUHU216HW,2013-03-10 19:07:00,
2013-03-10 12:12:00,51.5,35.3,30.27,SSE,158,1.1,3.1,54,0.00,,,0.00,WUHU216HW,2013-03-10 19:12:00,
2013-03-10 12:17:00,51.7,35.0,30.27,SW,225,2.5,2.9,53,0.00,,,0.00,WUHU216HW,2013-03-10 19:17:00,
2013-03-10 12:22:00,51.8,35.6,30.27,SSW,203,1.3,4.0,54,0.00,,,0.00,WUHU216HW,2013-03-10 19:22:00,
2013-03-10 12:27:00,51.8,35.2,30.27,SSW,203,1.8,2.5,53,0.00,,,0.00,WUHU216HW,2013-03-10 19:27:00,
2013-03-10 12:32:00,52.0,35.4,30.27,SSE,158,1.3,2.5,53,0.00,,,0.00,WUHU216HW,2013-03-10 19:32:00,
2013-03-10 12:37:00,52.0,35.4,30.26,SSE,158,1.1,2.2,53,0.00,,,0.00,WUHU216HW,2013-03-10 19:37:00,
2013-03-10 12:42:00,52.4,35.7,30.26,SSE,158,1.8,2.5,53,0.00,,,0.00,WUHU216HW,2013-03-10 19:42:00,
2013-03-10 12:47:00,52.7,36.5,30.26,South,180,1.6,2.5,54,0.00,,,0.00,WUHU216HW,2013-03-10 19:47:00,
2013-03-10 12:52:00,52.9,35.3,30.26,SSW,203,2.0,2.9,51,0.00,,,0.00,WUHU216HW,2013-03-10 19:52:00,
2013-03-10 12:57:00,53.3,34.6,30.25,South,180,3.4,4.3,49,0.00,,,0.00,WUHU216HW,2013-03-10 19:57:00,
2013-03-10 13:02:00,53.5,35.3,30.25,SSE,158,7.6,7.6,50,0.00,,,0.00,WUHU216HW,2013-03-10 20:02:00,
2013-03-10 13:08:00,54.0,35.2,30.25,SW,225,3.1,7.6,49,0.00,,,0.00,WUHU216HW,2013-03-10 20:08:00,
2013-03-10 13:13:00,54.2,34.3,30.25,SE,135,5.6,5.6,47,0.00,,,0.00,WUHU216HW,2013-03-10 20:13:00,
2013-03-10 13:18:00,54.4,33.8,30.25,SSW,203,4.7,6.3,46,0.00,,,0.00,WUHU216HW,2013-03-10 20:18:00,
2013-03-10 13:23:00,54.5,34.6,30.24,SSE,158,5.4,6.3,47,0.00,,,0.00,WUHU216HW,2013-03-10 20:23:00,
2013-03-10 13:28:00,54.7,34.2,30.25,SSE,158,3.4,7.4,46,0.00,,,0.00,WUHU216HW,2013-03-10 20:28:00,
2013-03-10 13:33:00,54.5,34.0,30.25,SSW,203,4.0,7.4,46,0.00,,,0.00,WUHU216HW,2013-03-10 20:33:00,
2013-03-10 13:38:00,54.4,33.8,30.24,SSW,203,3.4,6.3,46,0.00,,,0.00,WUHU216HW,2013-03-10 20:38:00,
2013-03-10 13:43:00,54.4,33.8,30.24,SSE,158,4.7,6.0,46,0.00,,,0.00,WUHU216HW,2013-03-10 20:43:00,
2013-03-10 13:48:00,54.5,34.0,30.24,SSW,203,4.0,4.7,46,0.00,,,0.00,WUHU216HW,2013-03-10 20:48:00,
2013-03-10 13:53:00,54.4,33.8,30.24,SSE,158,4.0,4.5,46,0.00,,,0.00,WUHU216HW,2013-03-10 20:53:00,
2013-03-10 13:58:00,54.5,34.6,30.23,South,180,4.0,4.7,47,0.00,,,0.00,WUHU216HW,2013-03-10 20:58:00,
2013-03-10 14:03:00,54.7,34.7,30.23,South,180,4.3,4.7,47,0.00,,,0.00,WUHU216HW,2013-03-10 21:03:00,
2013-03-10 14:08:00,54.9,34.9,30.23,SSE,158,2.7,4.9,47,0.00,,,0.00,WUHU216HW,2013-03-10 21:08:00,
2013-03-10 14:13:00,55.1,35.1,30.23,SW,225,1.1,4.9,47,0.00,,,0.00,WUHU216HW,2013-03-10 21:13:00,
2013-03-10 14:18:00,55.3,35.3,30.23,SSE,158,4.5,4.7,47,0.00,,,0.00,WUHU216HW,2013-03-10 21:18:00,
2013-03-10 14:23:00,55.3,35.3,30.23,SSE,158,4.7,4.7,47,0.00,,,0.00,WUHU216HW,2013-03-10 21:23:00,
2013-03-10 14:28:00,55.4,34.8,30.22,SSE,158,2.2,4.7,46,0.00,,,0.00,WUHU216HW,2013-03-10 21:28:00,
2013-03-10 14:34:00,55.4,35.4,30.22,SSE,158,2.5,5.8,47,0.00,,,0.00,WUHU216HW,2013-03-10 21:34:00,
2013-03-10 14:39:00,55.4,34.8,30.22,South,180,2.5,5.8,46,0.00,,,0.00,WUHU216HW,2013-03-10 21:39:00,
2013-03-10 14:44:00,55.4,35.4,30.22,SSW,203,2.7,3.6,47,0.00,,,0.00,WUHU216HW,2013-03-10 21:44:00,
2013-03-10 14:49:00,55.1,35.1,30.22,SW,225,3.1,4.5,47,0.00,,,0.00,WUHU216HW,2013-03-10 21:49:00,
2013-03-10 14:54:00,54.9,34.4,30.22,South,180,4.7,5.1,46,0.00,,,0.00,WUHU216HW,2013-03-10 21:54:00,
2013-03-10 14:59:00,54.7,34.7,30.22,SSE,158,3.4,5.1,47,0.00,,,0.00,WUHU216HW,2013-03-10 21:59:00,
2013-03-10 15:04:00,54.9,35.5,30.22,SSW,203,1.8,4.7,48,0.00,,,0.00,WUHU216HW,2013-03-10 22:04:00,
2013-03-10 15:09:00,55.1,36.2,30.22,SSE,158,2.5,4.3,49,0.00,,,0.00,WUHU216HW,2013-03-10 22:09:00,
2013-03-10 15:14:00,55.1,36.7,30.22,South,180,4.0,4.3,50,0.00,,,0.00,WUHU216HW,2013-03-10 22:14:00,
2013-03-10 15:19:00,54.9,36.6,30.22,South,180,5.4,5.4,50,0.00,,,0.00,WUHU216HW,2013-03-10 22:19:00,
2013-03-10 15:24:00,54.9,36.6,30.22,South,180,4.5,5.4,50,0.00,,,0.00,WUHU216HW,2013-03-10 22:24:00,
2013-03-10 15:29:00,54.7,36.5,30.22,SSW,203,4.5,5.1,50,0.00,,,0.00,WUHU216HW,2013-03-10 22:29:00,
2013-03-10 15:35:00,54.7,36.5,30.22,South,180,2.5,4.7,50,0.00,,,0.00,WUHU216HW,2013-03-10 22:35:00,
2013-03-10 15:40:00,54.7,36.5,30.22,SSE,158,4.0,5.4,50,0.00,,,0.00,WUHU216HW,2013-03-10 22:40:00,
2013-03-10 15:45:00,54.7,36.5,30.22,SSE,158,3.6,5.4,50,0.00,,,0.00,WUHU216HW,2013-03-10 22:45:00,
2013-03-10 15:50:00,54.7,36.5,30.23,SSE,158,2.7,4.9,50,0.00,,,0.00,WUHU216HW,2013-03-10 22:50:00,
2013-03-10 15:55:00,54.5,36.3,30.23,SE,135,3.8,4.9,50,0.00,,,0.00,WUHU216HW,2013-03-10 22:55:00,
2013-03-10 16:00:00,54.5,36.3,30.23,SSW,203,3.1,4.3,50,0.00,,,0.00,WUHU216HW,2013-03-10 23:00:00,
2013-03-10 16:05:00,54.5,36.3,30.22,South,180,4.9,4.9,50,0.00,,,0.00,WUHU216HW,2013-03-10 23:05:00,
2013-03-10 16:10:00,54.7,36.5,30.23,SE,135,1.8,4.9,50,0.00,,,0.00,WUHU216HW,2013-03-10 23:10:00,
2013-03-10 16:15:00,54.7,36.5,30.23,SSE,158,3.4,4.0,50,0.00,,,0.00,WUHU216HW,2013-03-10 23:15:00,
2013-03-10 16:20:00,54.9,36.6,30.22,South,180,2.7,3.6,50,0.00,,,0.00,WUHU216HW,2013-03-10 23:20:00,
2013-03-10 16:25:00,54.9,36.6,30.23,ESE,113,1.8,3.4,50,0.00,,,0.00,WUHU216HW,2013-03-10 23:25:00,
2013-03-10 16:30:00,55.1,36.7,30.23,SE,135,2.0,3.4,50,0.00,,,0.00,WUHU216HW,2013-03-10 23:30:00,
2013-03-10 16:35:00,55.3,36.9,30.23,SSE,158,2.5,3.4,50,0.00,,,0.00,WUHU216HW,2013-03-10 23:35:00,
2013-03-10 16:40:00,55.3,36.9,30.23,SSE,158,4.0,4.0,50,0.00,,,0.00,WUHU216HW,2013-03-10 23:40:00,
2013-03-10 16:45:00,55.6,37.3,30.22,SSE,158,1.8,4.0,50,0.00,,,0.00,WUHU216HW,2013-03-10 23:45:00,
2013-03-10 16:50:00,55.6,37.3,30.22,South,180,2.0,3.1,50,0.00,,,0.00,WUHU216HW,2013-03-10 23:50:00,
2013-03-10 16:55:00,55.8,37.4,30.22,SSE,158,2.5,3.1,50,0.00,,,0.00,WUHU216HW,2013-03-10 23:55:00,
2013-03-10 17:00:00,56.0,37.6,30.22,SSE,158,1.6,2.5,50,0.00,,,0.00,WUHU216HW,2013-03-11 00:00:00,
2013-03-10 17:05:00,56.2,37.8,30.22,SSE,158,1.6,2.0,50,0.00,,,0.00,WUHU216HW,2013-03-11 00:05:00,
2013-03-10 17:10:00,56.5,37.6,30.21,South,180,2.5,2.5,49,0.00,,,0.00,WUHU216HW,2013-03-11 00:10:00,
2013-03-10 17:16:00,56.7,37.8,30.22,South,180,2.0,3.1,49,0.00,,,0.00,WUHU216HW,2013-03-11 00:16:00,
2013-03-10 17:21:00,56.9,37.4,30.21,SSE,158,2.5,3.4,48,0.00,,,0.00,WUHU216HW,2013-03-11 00:21:00,
2013-03-10 17:26:00,57.2,37.7,30.21,SSE,158,2.0,3.4,48,0.00,,,0.00,WUHU216HW,2013-03-11 00:26:00,
2013-03-10 17:31:00,57.2,38.4,30.21,SE,135,2.5,4.3,49,0.00,,,0.00,WUHU216HW,2013-03-11 00:31:00,
2013-03-10 17:36:00,57.1,38.2,30.21,SSE,158,2.0,4.3,49,0.00,,,0.00,WUHU216HW,2013-03-11 00:36:00,
2013-03-10 17:41:00,57.1,38.2,30.22,SSE,158,2.9,3.6,49,0.00,,,0.00,WUHU216HW,2013-03-11 00:41:00,
2013-03-10 17:46:00,57.1,38.2,30.22,ESE,113,1.3,3.4,49,0.00,,,0.00,WUHU216HW,2013-03-11 00:46:00,
2013-03-10 17:51:00,57.4,39.1,30.22,East,90,2.5,3.4,50,0.00,,,0.00,WUHU216HW,2013-03-11 00:51:00,
2013-03-10 17:56:00,58.7,40.1,30.22,North,0,0.0,3.4,50,0.00,,,0.00,WUHU216HW,2013-03-11 00:56:00,
2013-03-10 18:02:00,58.7,39.6,30.21,North,0,0.0,2.5,49,0.00,,,0.00,WUHU216HW,2013-03-11 01:02:00,
2013-03-10 18:07:00,58.7,39.1,30.21,North,0,0.0,0.0,48,0.00,,,0.00,WUHU216HW,2013-03-11 01:07:00,
2013-03-10 18:12:00,57.6,38.6,30.21,North,0,0.0,0.0,49,0.00,,,0.00,WUHU216HW,2013-03-11 01:12:00,
2013-03-10 18:17:00,56.9,38.5,30.20,North,0,0.0,0.0,50,0.00,,,0.00,WUHU216HW,2013-03-11 01:17:00,
2013-03-10 18:22:00,56.2,37.8,30.20,North,0,0.0,0.0,50,0.00,,,0.00,WUHU216HW,2013-03-11 01:22:00,
2013-03-10 18:27:00,55.4,38.0,30.21,North,0,0.0,0.0,52,0.00,,,0.00,WUHU216HW,2013-03-11 01:27:00,
2013-03-10 18:33:00,54.9,38.0,30.21,North,0,0.0,0.0,53,0.00,,,0.00,WUHU216HW,2013-03-11 01:33:00,
2013-03-10 18:38:00,54.5,38.6,30.21,North,0,0.0,0.0,55,0.00,,,0.00,WUHU216HW,2013-03-11 01:38:00,
2013-03-10 18:43:00,54.4,38.9,30.20,North,0,0.0,0.0,56,0.00,,,0.00,WUHU216HW,2013-03-11 01:43:00,
2013-03-10 18:48:00,54.0,38.6,30.20,North,0,0.0,0.0,56,0.00,,,0.00,WUHU216HW,2013-03-11 01:48:00,
2013-03-10 18:53:00,53.6,39.7,30.20,North,0,0.0,0.0,59,0.00,,,0.00,WUHU216HW,2013-03-11 01:53:00,
2013-03-10 18:58:00,53.3,39.3,30.20,North,0,0.0,0.0,59,0.00,,,0.00,WUHU216HW,2013-03-11 01:58:00,
2013-03-10 19:03:00,52.9,39.8,30.20,North,0,0.0,0.0,61,0.00,,,0.00,WUHU216HW,2013-03-11 02:03:00,
2013-03-10 19:08:00,52.9,39.8,30.20,North,0,0.0,0.0,61,0.00,,,0.00,WUHU216HW,2013-03-11 02:08:00,
2013-03-10 19:13:00,52.7,39.6,30.21,ESE,113,3.4,3.4,61,0.00,,,0.00,WUHU216HW,2013-03-11 02:13:00,
2013-03-10 19:18:00,52.6,39.9,30.21,SSE,158,4.0,4.0,62,0.00,,,0.00,WUHU216HW,2013-03-11 02:18:00,
2013-03-10 19:23:00,52.6,40.3,30.21,NNW,338,1.8,4.0,63,0.00,,,0.00,WUHU216HW,2013-03-11 02:23:00,
2013-03-10 19:28:00,52.4,40.2,30.21,NNE,23,2.0,3.4,63,0.00,,,0.00,WUHU216HW,2013-03-11 02:28:00,
2013-03-10 19:33:00,52.0,40.1,30.21,SE,135,3.4,3.4,64,0.00,,,0.00,WUHU216HW,2013-03-11 02:33:00,
2013-03-10 19:38:00,51.8,40.0,30.21,ENE,68,1.8,3.4,64,0.00,,,0.00,WUHU216HW,2013-03-11 02:38:00,
2013-03-10 19:43:00,51.5,40.1,30.21,ENE,68,3.4,5.1,65,0.00,,,0.00,WUHU216HW,2013-03-11 02:43:00,
2013-03-10 19:48:00,51.3,40.3,30.21,NE,45,3.1,5.1,66,0.00,,,0.00,WUHU216HW,2013-03-11 02:48:00,
2013-03-10 19:53:00,51.1,40.2,30.21,SE,135,4.9,6.5,66,0.00,,,0.00,WUHU216HW,2013-03-11 02:53:00,
2013-03-10 19:59:00,50.8,39.8,30.21,NE,45,1.6,6.7,66,0.00,,,0.00,WUHU216HW,2013-03-11 02:59:00,
2013-03-10 20:04:00,50.6,39.6,30.20,South,180,3.6,6.7,66,0.00,,,0.00,WUHU216HW,2013-03-11 03:04:00,
2013-03-10 20:09:00,50.4,39.1,30.20,NE,45,2.5,6.0,65,0.00,,,0.00,WUHU216HW,2013-03-11 03:09:00,
2013-03-10 20:14:00,50.0,38.7,30.21,ENE,68,2.5,6.7,65,0.00,,,0.00,WUHU216HW,2013-03-11 03:14:00,
2013-03-10 20:19:00,50.0,39.1,30.21,NE,45,1.8,6.7,66,0.00,,,0.00,WUHU216HW,2013-03-11 03:19:00,
2013-03-10 20:24:00,49.7,38.8,30.21,SE,135,4.3,5.6,66,0.00,,,0.00,WUHU216HW,2013-03-11 03:24:00,
2013-03-10 20:29:00,49.7,38.3,30.21,ENE,68,2.5,5.4,65,0.00,,,0.00,WUHU216HW,2013-03-11 03:29:00,
2013-03-10 20:34:00,49.5,38.6,30.21,ESE,113,2.5,4.7,66,0.00,,,0.00,WUHU216HW,2013-03-11 03:34:00,
2013-03-10 20:40:00,49.3,39.2,30.20,North,0,2.5,4.0,68,0.00,,,0.00,WUHU216HW,2013-03-11 03:40:00,
2013-03-10 20:45:00,49.1,39.0,30.20,NNE,23,2.7,4.9,68,0.00,,,0.00,WUHU216HW,2013-03-11 03:45:00,
2013-03-10 20:50:00,49.1,39.0,30.21,East,90,4.5,4.9,68,0.00,,,0.00,WUHU216HW,2013-03-11 03:50:00,
2013-03-10 20:55:00,49.3,38.8,30.21,NNE,23,2.9,4.7,67,0.00,,,0.00,WUHU216HW,2013-03-11 03:55:00,
2013-03-10 21:00:00,49.3,38.8,30.21,SE,135,3.4,5.6,67,0.00,,,0.00,WUHU216HW,2013-03-11 04:00:00,
2013-03-10 21:06:00,49.3,38.4,30.21,SSW,203,2.5,6.0,66,0.00,,,0.00,WUHU216HW,2013-03-11 04:06:00,
2013-03-10 21:11:00,49.3,38.4,30.21,ESE,113,1.1,6.0,66,0.00,,,0.00,WUHU216HW,2013-03-11 04:11:00,
2013-03-10 21:16:00,49.1,38.3,30.21,ESE,113,1.8,5.4,66,0.00,,,0.00,WUHU216HW,2013-03-11 04:16:00,
2013-03-10 21:21:00,49.1,38.3,30.21,SE,135,2.9,4.0,66,0.00,,,0.00,WUHU216HW,2013-03-11 04:21:00,
2013-03-10 21:27:00,49.0,37.7,30.21,ENE,68,3.1,3.4,65,0.00,,,0.00,WUHU216HW,2013-03-11 04:27:00,
2013-03-10 21:32:00,48.8,37.5,30.21,SE,135,0.9,3.4,65,0.00,,,0.00,WUHU216HW,2013-03-11 04:32:00,
2013-03-10 21:37:00,48.6,37.4,30.21,SE,135,3.4,3.8,65,0.00,,,0.00,WUHU216HW,2013-03-11 04:37:00,
2013-03-10 21:42:00,48.2,37.4,30.21,North,0,4.0,4.0,66,0.00,,,0.00,WUHU216HW,2013-03-11 04:42:00,
2013-03-10 21:47:00,48.1,38.0,30.21,NNW,338,1.1,4.0,68,0.00,,,0.00,WUHU216HW,2013-03-11 04:47:00,
2013-03-10 21:52:00,47.7,37.6,30.22,WSW,248,0.0,3.4,68,0.00,,,0.00,WUHU216HW,2013-03-11 04:52:00,
2013-03-10 21:57:00,47.3,37.3,30.22,SSW,203,0.0,2.0,68,0.00,,,0.00,WUHU216HW,2013-03-11 04:57:00,
2013-03-10 22:00:00,47.2,36.7,30.22,SE,135,0.4,1.1,67,0.00,,,0.00,WUHU216HW,2013-03-11 05:00:00,
2013-03-10 22:07:00,46.6,36.6,30.22,NNW,338,0.4,1.8,68,0.00,,,0.00,WUHU216HW,2013-03-11 05:07:00,
2013-03-10 22:21:00,46.1,36.1,30.23,NE,45,1.3,1.8,68,0.00,,,0.00,WUHU216HW,2013-03-11 05:21:00,
2013-03-10 22:27:00,45.9,35.9,30.23,NNW,338,1.8,2.2,68,0.00,,,0.00,WUHU216HW,2013-03-11 05:27:00,
2013-03-10 22:32:00,45.9,35.9,30.23,NNE,23,0.4,2.2,68,0.00,,,0.00,WUHU216HW,2013-03-11 05:32:00,
2013-03-10 22:37:00,45.7,35.7,30.24,NNE,23,0.0,0.9,68,0.00,,,0.00,WUHU216HW,2013-03-11 05:37:00,
2013-03-10 22:42:00,45.7,35.7,30.23,North,0,0.0,0.4,68,0.00,,,0.00,WUHU216HW,2013-03-11 05:42:00,
2013-03-10 22:47:00,45.4,35.8,30.23,SSE,158,1.8,1.8,69,0.00,,,0.00,WUHU216HW,2013-03-11 05:47:00,
2013-03-10 22:52:00,45.0,35.5,30.23,ESE,113,2.9,4.5,69,0.00,,,0.00,WUHU216HW,2013-03-11 05:52:00,
2013-03-10 22:57:00,44.3,35.1,30.23,SE,135,4.0,4.5,70,0.00,,,0.00,WUHU216HW,2013-03-11 05:57:00,
2013-03-10 23:02:00,43.9,35.5,30.23,ESE,113,2.5,4.0,72,0.00,,,0.00,WUHU216HW,2013-03-11 06:02:00,
2013-03-10 23:07:00,43.7,35.0,30.23,ESE,113,3.4,3.8,71,0.00,,,0.00,WUHU216HW,2013-03-11 06:07:00,
2013-03-10 23:12:00,43.6,35.2,30.23,North,0,0.0,3.4,72,0.00,,,0.00,WUHU216HW,2013-03-11 06:12:00,
2013-03-10 23:18:00,44.1,36.0,30.23,North,0,1.1,3.4,73,0.00,,,0.00,WUHU216HW,2013-03-11 06:18:00,
2013-03-10 23:23:00,44.3,35.8,30.23,SSE,158,0.0,1.1,72,0.00,,,0.00,WUHU216HW,2013-03-11 06:23:00,
2013-03-10 23:28:00,44.3,35.8,30.23,NNE,23,0.4,1.1,72,0.00,,,0.00,WUHU216HW,2013-03-11 06:28:00,
2013-03-10 23:33:00,44.3,35.8,30.22,ESE,113,3.6,3.6,72,0.00,,,0.00,WUHU216HW,2013-03-11 06:33:00,
2013-03-10 23:38:00,44.1,35.6,30.22,SE,135,1.1,3.6,72,0.00,,,0.00,WUHU216HW,2013-03-11 06:38:00,
2013-03-10 23:43:00,44.1,35.6,30.22,ENE,68,3.4,3.4,72,0.00,,,0.00,WUHU216HW,2013-03-11 06:43:00,
2013-03-10 23:48:00,44.3,35.8,30.22,East,90,1.8,3.4,72,0.00,,,0.00,WUHU216HW,2013-03-11 06:48:00,
2013-03-10 23:53:00,43.9,36.2,30.22,SE,135,4.0,4.0,74,0.00,,,0.00,WUHU216HW,2013-03-11 06:53:00,
2013-03-10 23:58:00,43.6,35.2,30.23,North,0,2.5,4.0,72,0.00,,,0.00,WUHU216HW,2013-03-11 06:58:00,